PST,Max TemperatureF,Mean TemperatureF,Min TemperatureF,Max Dew PointF,MeanDew PointF,Min DewpointF,Max Humidity, Mean Humidity, Min Humidity, Max Sea Level PressureIn, Mean Sea Level PressureIn, Min Sea Level PressureIn, Max VisibilityMiles, Mean VisibilityMiles, Min VisibilityMiles, Max Wind SpeedMPH, Mean Wind SpeedMPH, Max Gust SpeedMPH,PrecipitationIn, CloudCover, Events, WindDirDegrees
2012-11-1,63,50,37,35,28,18,67,40,23,29.99,29.93,29.87,10,10,10,10,5,,0.00,5,,299
2012-11-2,64,46,30,33,29,23,76,56,31,30.15,30.02,29.97,10,10,3,8,3,,0.00,4,,104
2012-11-3,66,48,30,30,27,22,73,51,22,30.24,30.11,30.04,10,10,10,7,3,,0.00,3,,146
2012-11-4,70,50,30,29,25,17,60,41,21,30.40,30.24,30.17,10,10,10,8,2,,0.00,2,,137
2012-11-5,70,52,34,32,27,23,64,45,23,30.43,30.26,30.19,10,10,10,6,3,,0.00,1,,183
2012-11-6,72,50,28,32,28,21,72,48,21,30.30,30.12,30.04,10,10,10,7,3,,0.00,1,,100
2012-11-7,73,54,35,29,25,21,61,35,16,30.12,29.93,29.77,10,10,10,10,5,,0.00,1,,192
2012-11-8,64,50,37,31,22,10,65,35,19,29.76,29.66,29.57,10,8,2,40,15,55,0.00,3,,225
2012-11-9,43,34,24,25,21,12,85,63,28,29.82,29.73,29.69,10,10,10,14,5,21,0.00,5,,273
2012-11-10,39,31,21,28,22,13,87,70,36,30.09,29.93,29.76,10,8,1,18,6,21,0.00,6,Snow,277
2012-11-11,42,29,16,19,15,11,81,57,32,30.35,30.20,30.10,10,10,10,8,5,,0.00,4,,152
2012-11-12,53,35,17,19,14,10,74,51,20,30.37,30.22,30.16,10,10,10,8,3,,0.00,2,,128
2012-11-13,57,38,19,23,17,10,68,48,23,30.30,30.14,30.07,10,10,10,9,2,,0.00,4,,114
2012-11-14,59,42,25,25,18,12,72,46,21,30.21,30.08,30.04,10,10,10,7,2,,0.00,2,,72
2012-11-15,57,38,19,27,21,10,68,48,25,30.17,30.01,29.93,10,10,10,7,2,,0.00,4,,68
2012-11-16,55,48,42,39,33,25,69,52,40,30.01,29.93,29.87,10,10,10,13,7,,0.00,7,Rain,168
2012-11-17,62,53,39,37,34,30,68,49,34,29.91,29.81,29.75,10,10,10,21,11,31,0.00,6,Rain,192
2012-11-18,60,50,41,34,30,23,67,48,24,30.02,29.91,29.83,10,10,10,17,5,22,0.00,6,,357
2012-11-19,60,50,41,32,27,21,60,45,22,30.15,30.05,30.01,10,10,10,10,4,,0.00,6,,165
2012-11-20,68,58,48,33,31,25,56,42,23,30.07,29.93,29.87,10,10,10,20,12,26,0.00,4,,189
2012-11-21,66,54,36,34,28,23,67,40,22,30.13,29.94,29.85,10,10,10,21,10,29,0.00,6,,209
2012-11-22,54,38,23,28,24,18,81,59,35,30.27,30.23,30.17,10,10,10,8,3,,0.00,0,,123
2012-11-23,55,37,19,26,22,14,91,60,33,30.40,30.24,30.18,10,10,10,7,2,,0.00,3,,115
2012-11-24,60,40,21,24,19,15,85,51,20,30.29,30.09,29.98,10,10,10,7,1,,0.00,1,,160
2012-11-25,57,40,23,25,18,11,67,47,26,30.08,29.98,29.93,10,10,10,8,2,38,0.00,1,,120
2012-11-26,55,37,19,28,22,12,85,62,34,30.15,30.04,30.00,10,10,10,7,3,,0.00,2,,59
2012-11-27,55,36,18,26,21,14,85,60,31,30.19,30.05,30.00,10,10,10,6,2,,0.00,5,,8
2012-11-28,60,42,24,39,26,16,89,58,25,30.01,29.90,29.82,10,10,4,22,6,37,0.00,4,Rain,3
2012-11-29,62,43,24,35,29,21,93,65,34,30.00,29.88,29.76,10,8,0,21,6,28,0.00,5,Fog,157
2012-11-30,59,49,39,43,34,28,79,54,34,29.84,29.79,29.74,10,10,9,18,12,26,0.00,5,Rain,181